Regional Weather Roundup
Issued by NWS

Home | Current Version | Previous Version | Text Only | Print | Product List | Glossary Off
Versions: 1 2 3 4 5 6 7 8 9 10 11 12 13 14 15 16 17 18 19 20 21 22 23 24 25 26 27 28 29 30 31 32 33 34 35 36 37 38 39 40 41 42 43 44 45 46 47 48 49 50

000
ASUS43 KLOT 070203
RWRIL

ILLINOIS REGIONAL WEATHER ROUNDUP
NATIONAL WEATHER SERVICE CHICAGO/ROMEOVILLE IL
800 PM CST TUE DEC 06 2016

NOTE: "FAIR" INDICATES FEW OR NO CLOUDS BELOW 12,000 FEET WITH NO
SIGNIFICANT WEATHER AND/OR OBSTRUCTIONS TO VISIBILITY.

* THESE STATIONS ARE NOT UNDER NWS QUALITY CONTROL. THEY ALSO MAY NOT
  REPORT WEATHER SUCH AS PRECIPITATION OR FOG.

ILZ001-002-007-009-015-016-024-070300-
NORTHWEST ILLINOIS

CITY           SKY/WX    TMP DP  RH WIND       PRES   REMARKS
MOLINE         CLEAR     28  20  71 W9        29.99R WCI  19
STERLING*      CLEAR     27  22  81 W15       29.97R WCI  15
$$

ILZ003-004-008-010-011-017-018-070300-
NORTH CENTRAL ILLINOIS

CITY           SKY/WX    TMP DP  RH WIND       PRES   REMARKS
ROCKFORD       CLOUDY    28  19  69 W14       29.95R WCI  17
FREEPORT*      CLOUDY    27  20  76 W14G21    29.95R WCI  15
ROCHELLE*      CLEAR     26  21  81 W13       29.96R WCI  15
$$

ILZ005-006-012>014-019>023-070300-
NORTHEAST ILLINOIS

CITY           SKY/WX    TMP DP  RH WIND       PRES   REMARKS
CHICAGO-OHARE  PTCLDY    29  22  75 W18G24    29.92R WCI  16
CHICAGO-MIDWAY PTCLDY    31  20  63 W18G29    29.93R WCI  19
AURORA         CLEAR     28  21  75 W17       29.96R WCI  16
LANSING*       PTCLDY    31  25  80 W16       29.94R WCI  19
WAUKEGAN       PTCLDY    28  19  69 W17G29    29.88R WCI  16
DUPAGE AIRPORT CLEAR     28  19  69 W17G25    29.93R WCI  16
KANKAKEE*      CLOUDY    31  26  81 W13       29.97R WCI  22
WHEELING       PTCLDY    29  21  72 W15G21    29.92R WCI  18
MORRIS*        CLEAR     31  23  73 W18       29.97R WCI  19
NORTHERLY ISL    N/A     31  22  69 W12         N/A  WCI  22
$$

LMZ740>746-070300-
SOUTHERN LAKE MICHIGAN

STATION/POSITION SKY/WX   TEMP    WIND        PRES    VSBY  WAVE
                          AIR SEA DIR/SP/G                  HT/PER
                          (F)     (DEG/KT/KT) (MB)    (MI)  (FT/S)
BURNHAM HARBOR             32     260/  9/ 14   N/A
$$

ILZ025>027-034>036-040-047-049-050-058-095>099-070300-
WEST-CENTRAL ILLINOIS

CITY           SKY/WX    TMP DP  RH WIND       PRES   REMARKS
QUINCY         CLEAR     30  19  63 W8        30.05R WCI  22
GALESBURG*     CLEAR     28  22  79 W5        30.00S WCI  22
MACOMB*        CLEAR     31  23  73 W13       30.04S WCI  21
JACKSONVILLE*  PTCLDY    31  23  73 W5        30.05R WCI  26
PITTSFIELD*    PTCLDY    33  23  67 W7        30.07R WCI  27
$$

ILZ028>032-037-038-041>044-048-051>054-059>061-070300-
CENTRAL ILLINOIS

CITY           SKY/WX    TMP DP  RH WIND       PRES   REMARKS
PONTIAC        CLEAR     32  27  81 W14       30.00R WCI  22
BLOOMINGTON    CLEAR     30  25  81 W14       30.00R WCI  19
DECATUR        CLEAR     34  26  72 NW9       30.02R WCI  27
PEORIA         CLEAR     29  22  75 W5        30.02R WCI  24
LACON*         CLEAR     30  23  73 W5        30.00R WCI  25
LINCOLN*       CLEAR     33  28  81 W3        30.02S
SPRINGFIELD    CLEAR     35  25  66 W7        30.04R WCI  29
TAYLORVILLE    PTCLDY    34  28  77 W10       30.03R WCI  26
$$

ILZ033-039-045-046-055>057-062-063-070300-
EAST-CENTRAL ILLINOIS

CITY           SKY/WX    TMP DP  RH WIND       PRES   REMARKS
CHAMPAIGN      PTCLDY    32  28  85 W10       30.00R WCI  24
RANTOUL*       PTCLDY    34  30  85 W10       30.00R WCI  26
MATTOON        PTCLDY    33  29  85 W6        30.01R WCI  28
PARIS*         CLOUDY    32  31  95 SW7       30.01R WCI  26
$$

ILZ079-100>102-070300-
SOUTHWEST ILLINOIS

CITY           SKY/WX    TMP DP  RH WIND       PRES   REMARKS
ALTON          CLEAR     34  27  75 W6        30.07R WCI  29
BELLEVILLE     PTCLDY    35  29  78 NW8       30.05R WCI  29
CAHOKIA*       PTCLDY    37  24  59 NW7       30.07R WCI  32
SPARTA*        CLEAR     34  32  93 W3        30.07R
$$

ILZ064>066-069>071-074>076-080>082-084>086-088>090-092>094-070300-
SOUTH-CENTRAL ILLINOIS

CITY           SKY/WX    TMP DP  RH WIND       PRES   REMARKS
CARBONDALE     CLOUDY    36  34  92 W3        30.07R
CAIRO*         CLOUDY    40  36  85 NW5       30.07R
EFFINGHAM*     PTCLDY    34  33  96 SW6       30.05R WCI  29
MARION         PTCLDY    37  36  93 CALM      30.07R
CENTRALIA*     CLEAR     33  33  98 CALM      30.05R FOG
SALEM*         CLEAR     36  33  88 W5        30.05R WCI  32
METROPOLIS*    CLOUDY    41  36  83 CALM      30.08R
$$

ILZ067-068-072-073-078-083-087-091-070300-
SOUTHEAST ILLINOIS

CITY           SKY/WX    TMP DP  RH WIND       PRES   REMARKS
LAWRENCEVILLE  CLOUDY    36  32  85 W5        30.03R WCI  32
FLORA*         PTCLDY    33  32  96 SW5       30.05R FOG     WCI  28
FAIRFIELD*     PTCLDY    34  33  96 CALM      30.04R
HARRISBURG*    PTCLDY    37  35  92 W3        30.07R
ROBINSON*      CLEAR     32  31  96 W6        30.03R WCI  26
CARMI*         PTCLDY    36  35  94 CALM      30.04S
$$

ABBREVIATIONS USED IN REMARKS
   TC - TEMPERATURE IN CELSIUS
  WCI - WIND CHILL INDEX
   HX - HEAT INDEX
  VSB - VISIBILITY
$$





USA.gov is the U.S. government's official web portal to all federal, state and local government web resources and services.